Date,TemperatureHighF,TemperatureAvgF,TemperatureLowF,DewpointHighF,DewpointAvgF,DewpointLowF,HumidityHigh,HumidityAvg,HumidityLow,PressureMaxIn,PressureMinIn,WindSpeedMaxMPH,WindSpeedAvgMPH,GustSpeedMaxMPH,PrecipitationSumIn
2013-1-1,39.2,35.7,26.0,29.2,23.6,11.2,70,62,50,29.98,29.79,6,2,9,0.03
2013-1-2,32.8,27.0,20.6,17.1,13.1,10.0,67,56,46,30.14,29.97,5,2,11,0.00
2013-1-3,32.8,27.8,18.8,18.8,15.4,10.7,72,60,45,30.16,30.02,3,1,6,0.00
2013-1-4,39.3,32.7,24.8,24.5,21.4,18.5,82,63,49,30.04,29.90,5,2,9,0.00
2013-1-5,43.8,33.9,27.8,25.3,21.7,18.2,84,62,43,30.23,29.96,8,2,10,0.00
2013-1-6,46.5,37.8,30.3,31.9,27.8,24.0,87,68,49,30.17,29.92,4,1,5,0.00
2013-1-7,45.7,34.3,26.7,30.3,24.6,20.5,90,70,41,30.36,30.00,6,1,9,0.00
2013-1-8,48.6,34.5,24.1,32.1,26.9,21.6,93,76,50,30.39,30.29,4,1,8,0.00
2013-1-9,29.4,28.1,27.3,26.8,25.9,25.3,92,91,90,30.35,30.34,0,0,1,0.00
2013-1-17,35.2,34.7,34.3,25.0,23.5,22.7,66,63,62,30.02,29.99,1,1,3,0.30
2013-1-18,33.8,27.9,24.7,22.4,11.7,2.9,64,51,33,30.44,29.98,5,2,13,0.00
2013-1-19,50.1,40.1,27.3,29.3,23.7,12.2,67,52,38,30.35,29.88,6,3,11,0.05
2013-1-20,53.9,41.6,29.3,30.7,22.9,7.9,79,50,22,29.99,29.64,8,4,18,0.00
2013-1-21,31.2,28.0,22.2,17.5,12.9,7.5,71,53,41,30.05,29.79,4,1,9,0.00
2013-1-22,26.9,20.0,12.8,16.8,0.9,-9.6,66,44,26,30.17,29.79,7,3,12,0.00
2013-1-23,20.6,14.2,10.2,3.2,-3.5,-7.7,72,46,29,30.22,30.12,5,2,11,0.00
2013-1-24,23.8,15.7,8.4,4.8,0.0,-5.9,80,53,27,30.35,30.10,9,3,17,0.00
2013-1-25,24.1,17.2,11.7,16.7,5.0,-2.3,86,60,38,30.37,30.03,4,1,7,0.00
2013-1-26,27.3,18.2,7.9,11.4,7.4,4.1,87,65,38,30.33,30.00,6,2,13,0.03
2013-1-27,33.4,23.5,12.9,14.5,10.2,6.4,83,58,35,30.48,30.33,6,1,8,0.01
2013-1-28,33.7,29.7,21.4,32.2,25.4,14.0,95,84,64,30.45,29.97,3,1,7,0.24
2013-1-29,47.7,38.5,33.4,42.7,35.7,32.1,96,90,72,30.10,29.95,3,0,5,0.13
2013-1-30,57.8,47.5,38.0,54.6,45.6,37.0,97,93,83,30.06,29.31,4,1,9,0.12
2013-1-31,60.4,45.4,29.3,59.0,31.6,9.0,96,61,33,29.73,28.99,11,6,20,0.75
2013-2-1,32.1,27.5,23.3,14.5,11.4,5.2,66,51,33,30.19,29.74,7,3,14,0.00
2013-2-2,30.0,24.5,18.6,20.5,10.0,3.8,87,55,33,30.26,30.02,6,2,7,0.00
2013-2-3,30.6,24.6,19.2,21.1,18.2,15.5,91,77,60,30.02,29.75,3,0,5,0.04
2013-2-4,31.3,26.5,21.6,21.3,11.7,7.2,84,54,38,29.93,29.76,5,2,13,0.00
2013-2-5,30.0,28.5,26.1,26.1,21.9,13.5,86,77,55,29.94,29.85,2,0,4,0.01
2013-2-6,40.1,32.0,25.3,28.3,19.8,3.5,90,63,35,30.32,29.88,5,2,10,0.02
2013-2-7,31.3,26.9,21.0,23.0,10.8,5.0,71,51,34,30.48,30.30,2,1,5,0.00
2013-2-8,33.7,32.0,27.3,31.2,28.0,23.3,93,86,71,30.30,29.60,9,4,16,0.08
2013-2-9,32.4,26.8,18.6,25.3,19.0,8.2,92,74,51,30.30,29.70,7,2,15,0.08
2013-2-10,34.1,22.1,9.2,22.1,11.9,2.6,85,66,38,30.45,30.29,2,1,6,0.28
2013-2-11,40.1,33.5,25.7,38.5,31.3,21.6,96,91,84,30.29,29.62,1,0,3,0.32
2013-2-12,44.9,38.0,30.4,34.8,28.9,23.4,96,72,48,29.93,29.68,6,2,11,0.21
2013-2-13,43.2,34.0,22.9,31.3,24.3,18.2,93,69,47,29.91,29.65,3,0,4,0.01
2013-2-14,32.9,32.8,32.7,31.5,31.3,31.1,95,94,93,29.73,29.67,1,0,2,0.01
2013-2-16,38.8,34.7,30.3,26.3,21.4,15.0,63,58,52,29.88,29.70,5,2,7,0.07
2013-2-17,32.9,26.2,17.0,15.2,5.3,-0.3,53,41,28,29.96,29.62,10,5,16,0.00
2013-2-18,34.6,25.5,16.4,15.9,6.2,0.4,59,44,27,30.19,29.96,6,2,10,0.00
2013-2-19,47.6,36.7,24.2,41.8,28.8,14.6,96,75,46,30.16,29.63,5,1,17,0.28
2013-2-20,36.5,30.5,24.8,25.1,14.6,8.8,65,52,40,29.93,29.67,7,4,16,0.00
2013-2-21,35.2,27.8,23.6,14.6,12.1,9.5,65,52,41,30.25,29.93,7,4,12,0.00
2013-2-22,37.3,31.4,23.6,29.0,21.0,13.7,78,66,51,30.36,30.23,4,1,8,0.00
2013-2-23,40.9,36.8,33.7,39.6,34.9,28.8,95,93,76,30.23,29.77,6,1,10,0.12
2013-2-24,47.6,38.4,32.1,39.0,31.4,21.7,96,77,54,29.92,29.70,6,2,11,0.02
2013-2-25,46.0,36.6,26.0,30.4,25.7,19.8,88,66,46,30.20,29.92,4,1,8,0.00
2013-2-26,42.8,36.3,27.6,33.4,30.0,25.1,92,79,66,30.25,29.88,9,3,16,0.14
2013-2-27,45.7,41.7,36.0,44.1,39.5,33.4,94,92,89,29.88,29.44,13,5,32,0.74
2013-2-28,50.2,41.9,37.0,40.3,33.3,-99.9,94,75,53,29.58,29.50,3,1,7,0.00
2013-3-1,46.7,37.2,29.0,32.5,28.3,24.8,90,71,48,0.00,-32.77,5,1,6,0.00
2013-3-2,39.3,35.7,30.7,26.9,25.3,23.7,82,67,55,29.71,29.65,4,2,9,0.00
2013-3-3,41.2,32.6,27.9,25.0,19.2,16.0,79,58,42,29.72,29.61,6,3,16,0.00
2013-3-4,41.9,33.3,26.6,21.6,18.8,14.7,67,55,42,29.86,29.72,8,4,17,0.00
2013-3-5,47.4,37.4,29.1,29.1,23.9,19.6,75,59,40,29.97,29.86,5,2,10,0.00
2013-3-6,44.1,39.7,37.0,34.8,30.5,26.7,84,70,62,29.94,29.82,13,6,24,0.01
2013-3-7,38.9,35.8,32.5,33.1,29.7,25.6,95,79,62,30.04,29.88,8,4,14,0.10
2013-3-8,39.9,34.7,31.2,33.5,30.8,27.2,95,86,65,30.15,29.96,5,2,14,0.35
2013-3-9,53.8,41.0,31.0,27.3,23.9,17.2,76,53,25,30.27,30.14,6,2,13,0.21
2013-3-10,52.0,38.2,27.3,36.8,31.0,24.3,93,76,54,30.35,30.26,4,1,6,0.00
2013-3-11,54.2,46.3,37.5,47.1,40.6,33.7,89,81,65,30.28,30.05,6,2,9,0.00
2013-3-12,55.1,50.8,42.2,53.7,47.6,36.5,95,89,75,30.06,29.62,9,4,22,0.91
2013-3-13,42.2,39.9,36.5,36.8,34.8,33.0,87,82,79,29.81,29.78,2,1,4,0.00
2013-3-17,37.2,33.2,27.9,18.5,16.1,12.9,66,50,37,30.26,30.11,3,1,9,0.02
2013-3-18,34.9,29.8,23.5,31.0,18.1,8.5,93,63,44,30.37,29.99,5,2,12,0.00
2013-3-19,40.8,36.1,33.1,35.5,32.8,29.1,94,88,75,29.99,29.65,8,3,16,0.69
2013-3-20,45.1,36.5,29.1,28.7,21.1,16.1,75,55,33,29.83,29.74,6,2,11,0.10
2013-3-21,39.3,34.6,31.0,27.3,17.0,9.4,84,50,31,29.80,29.58,5,2,8,0.00
2013-3-22,41.9,34.4,26.1,22.3,17.8,13.1,71,51,38,29.83,29.68,6,2,11,0.00
2013-3-23,37.2,32.1,27.6,23.6,21.0,19.2,74,64,53,29.84,29.81,5,1,6,0.00
2013-3-24,47.3,42.5,32.1,26.8,23.0,20.0,69,46,36,29.91,29.67,5,2,10,0.00
2013-3-25,42.2,38.4,36.8,35.7,28.9,23.5,93,69,48,29.67,29.42,8,2,17,0.07
2013-3-26,53.8,40.3,30.7,35.1,28.7,24.0,94,67,33,29.81,29.54,6,1,9,0.00
2013-3-27,54.8,40.6,27.0,31.4,25.9,19.0,87,60,28,29.93,29.81,6,2,10,0.00
2013-3-28,53.6,42.0,29.4,34.2,29.9,26.3,89,64,45,30.06,29.91,6,2,11,0.00
2013-3-29,56.7,44.9,31.8,32.4,28.7,24.8,87,56,29,30.10,30.00,6,2,11,0.00
2013-3-30,60.2,51.4,37.9,32.4,24.5,18.4,71,37,21,30.12,30.01,5,2,8,0.00
2013-3-31,56.2,44.1,30.3,43.8,33.9,26.6,94,70,35,30.08,29.63,7,2,14,0.14
2013-4-1,62.9,47.4,36.5,48.5,36.8,11.6,97,70,32,29.86,29.56,8,2,14,0.01
2013-4-2,45.1,36.9,27.9,18.5,13.6,8.8,67,40,25,30.04,29.86,7,3,15,0.00
2013-4-3,47.6,38.3,30.9,18.3,12.3,7.9,50,35,24,30.26,30.03,7,4,19,0.00
2013-4-4,53.6,40.7,26.6,31.3,21.2,13.5,71,47,27,30.35,30.04,6,2,10,0.00
2013-4-5,63.2,49.3,39.6,31.6,24.1,14.8,66,40,19,30.03,29.67,7,3,13,0.00
2013-4-6,52.2,42.6,33.1,30.7,16.6,4.2,71,38,16,30.26,29.95,6,2,10,0.01
2013-4-7,56.0,47.7,37.0,43.7,35.3,25.6,75,63,39,30.26,29.94,7,3,11,0.00
2013-4-8,74.0,57.5,42.2,46.7,42.2,36.8,93,62,27,30.03,29.93,6,2,10,0.00
2013-4-9,82.2,66.0,48.9,53.4,43.7,32.2,90,51,18,29.95,29.84,7,2,10,0.00
2013-4-10,74.0,62.6,52.5,56.7,50.3,40.1,95,66,36,29.91,29.76,5,2,9,0.45
2013-4-11,62.4,55.4,47.0,57.3,48.8,38.4,96,79,59,30.01,29.73,5,2,9,0.01
2013-4-12,46.8,43.1,40.6,40.9,38.6,35.1,94,84,69,30.00,29.68,9,4,17,0.40
2013-4-13,59.3,48.1,38.5,41.4,37.5,32.9,95,70,40,29.92,29.70,4,1,8,0.05
2013-4-14,57.3,51.0,45.1,40.6,33.1,26.0,79,52,33,30.18,29.92,7,2,13,0.00
2013-4-15,58.1,48.9,40.1,38.4,31.4,26.8,76,52,37,30.33,30.18,5,2,8,0.00
2013-4-16,63.4,56.0,45.5,53.3,47.3,37.9,81,73,62,30.33,30.07,6,2,10,0.00
2013-4-17,67.3,60.4,49.2,55.7,44.8,34.0,87,60,31,30.25,30.07,5,2,9,0.00
2013-4-18,60.1,53.4,44.5,54.0,44.1,35.6,93,72,41,30.30,30.06,5,2,10,0.01
2013-4-19,71.8,63.7,55.7,62.6,58.4,53.9,95,83,67,30.06,29.60,6,3,11,0.13
2013-4-20,63.1,53.1,44.9,61.4,36.6,24.6,95,58,29,30.26,29.60,6,3,11,0.12
2013-4-21,52.9,44.9,34.1,32.8,23.5,16.6,72,44,25,30.58,30.26,6,2,12,0.00
2013-4-22,53.6,46.0,36.0,37.2,32.7,25.0,86,61,34,30.63,30.46,7,3,14,0.00
2013-4-23,52.0,45.0,39.3,41.5,36.6,30.5,88,72,66,30.46,30.08,6,2,15,0.00
2013-4-24,71.1,52.4,35.3,51.7,44.0,33.7,95,76,47,30.08,29.78,5,2,7,0.00
2013-4-25,59.3,53.0,45.7,52.4,38.9,26.0,86,60,29,30.15,29.81,6,3,13,0.00
2013-4-27,68.3,62.1,51.0,35.2,30.7,24.7,49,31,22,30.38,30.23,4,2,8,0.00
2013-4-28,70.4,56.0,40.9,43.5,35.7,28.1,81,49,26,30.27,30.16,5,2,7,0.00
2013-4-29,56.6,54.5,52.5,50.6,47.0,42.3,88,76,66,30.20,30.15,3,1,6,0.05
2013-4-30,67.4,57.0,45.5,47.4,38.5,24.4,81,54,23,30.30,30.17,4,1,9,0.00
2013-5-1,68.9,54.1,37.3,45.6,38.4,26.9,90,59,28,30.45,30.30,6,1,9,0.00
2013-5-2,73.7,57.1,40.5,48.6,41.7,35.2,95,62,26,30.44,30.28,3,1,6,0.00
2013-5-3,64.5,55.8,46.7,44.3,39.9,33.0,88,57,33,30.42,30.32,4,2,7,0.00
2013-5-4,61.3,46.8,41.2,47.7,42.3,39.6,95,86,49,30.34,30.26,4,1,5,0.00
2013-5-5,62.3,55.9,45.4,44.8,41.5,36.1,84,60,39,30.24,30.18,3,1,8,0.00
2013-5-6,68.4,55.2,42.2,54.3,47.4,39.5,93,76,54,30.23,30.11,3,1,7,0.00
2013-5-7,72.8,60.1,46.1,59.4,52.8,44.7,96,78,58,30.14,30.05,4,1,7,0.00
2013-5-8,63.4,59.5,53.1,61.7,57.3,51.7,96,93,83,30.07,29.94,3,1,7,1.79
2013-5-9,64.5,57.9,53.1,61.1,56.0,51.7,96,93,80,29.97,29.85,2,0,3,0.42
2013-5-10,79.9,64.6,50.5,60.4,55.4,49.7,97,75,43,29.96,29.84,3,1,5,0.00
2013-5-11,69.1,63.5,60.2,65.1,61.5,56.8,96,93,84,29.86,29.66,3,0,4,0.58
2013-5-12,70.6,60.0,49.4,59.3,45.1,26.7,97,64,27,29.89,29.61,4,1,7,0.06
2013-5-13,58.0,48.6,40.5,36.8,32.3,24.0,81,55,32,30.07,29.89,4,1,8,0.00
2013-5-14,59.8,48.2,34.7,38.7,32.0,22.7,94,59,25,30.09,29.98,4,1,7,0.00
2013-5-15,46.4,42.7,40.6,41.2,37.7,34.9,87,82,77,30.03,29.99,0,0,0,0.00
2013-5-16,79.2,70.1,56.6,58.4,54.9,48.7,96,62,37,29.78,29.66,3,1,5,0.00
2013-5-17,70.1,61.0,51.7,51.5,44.7,39.7,82,57,34,30.17,29.78,4,1,8,0.00
2013-5-18,66.4,57.5,47.6,55.6,50.2,45.6,94,78,54,30.27,30.16,2,0,3,0.02
2013-5-19,58.9,57.4,55.4,57.6,55.3,49.7,97,93,75,30.29,30.14,2,0,5,0.37
2013-5-20,77.9,66.8,57.5,68.6,62.4,56.7,97,87,68,30.14,29.92,1,0,6,0.00
2013-5-21,87.4,74.3,62.0,72.2,66.6,60.8,97,79,55,29.94,29.78,3,1,4,0.00
2013-5-22,77.2,69.0,58.6,70.9,64.7,56.6,94,86,77,29.90,29.79,3,0,9,0.00
2013-5-23,77.6,70.4,65.2,70.7,67.4,64.0,97,91,73,29.85,29.72,3,0,4,1.70
2013-5-24,65.5,55.6,45.4,64.6,54.3,43.5,97,95,90,29.91,29.63,4,1,7,0.34
2013-5-25,54.4,48.5,44.2,48.3,43.4,39.1,96,84,64,29.96,29.86,7,2,11,0.35
2013-5-26,67.3,55.2,45.5,43.3,39.4,33.8,80,58,33,30.17,29.91,6,2,11,0.01
2013-5-27,74.4,58.4,41.2,46.7,41.7,36.4,94,59,27,30.21,30.07,3,0,7,0.00
2013-5-28,68.1,57.0,49.2,57.6,52.4,46.3,97,86,53,30.18,30.09,1,0,3,0.54
2013-5-29,82.2,68.1,58.1,70.2,63.4,57.3,97,86,63,30.10,29.95,2,0,5,0.00
2013-5-30,90.5,77.5,65.8,71.1,66.0,62.2,96,71,43,30.09,30.01,2,0,4,0.00
2013-5-31,91.6,77.8,66.1,71.9,66.5,61.9,95,70,44,30.09,29.94,2,0,4,0.00
2013-6-1,89.7,78.4,67.4,72.8,67.5,63.3,94,71,51,29.98,29.85,3,1,6,0.00
2013-6-2,88.0,78.7,71.1,71.7,68.8,65.5,95,73,54,29.87,29.72,3,1,7,0.10
2013-6-3,78.5,70.2,62.9,70.5,67.1,52.9,97,90,65,29.85,29.76,2,0,5,0.91
2013-6-4,73.0,64.1,55.9,53.0,46.5,40.5,73,54,32,30.08,29.85,4,2,8,0.00
2013-6-5,74.7,61.7,48.6,54.6,48.6,44.8,93,65,40,30.18,30.07,2,1,5,0.00
2013-6-6,72.0,62.3,53.9,59.5,55.4,48.7,95,79,48,30.11,29.99,3,1,5,0.14
2013-6-7,61.6,60.4,59.2,60.4,59.3,58.1,96,96,94,29.99,29.60,3,1,9,2.73
2013-6-8,76.5,65.7,56.5,66.4,61.1,55.7,97,86,66,30.01,29.55,4,1,7,0.43
2013-6-9,80.3,68.5,57.5,64.7,60.2,56.4,97,77,49,30.14,30.01,3,0,8,0.00
2013-6-10,69.8,64.8,61.6,66.2,62.7,60.4,96,93,87,30.12,29.80,4,1,11,1.00
2013-6-11,80.1,69.2,62.4,71.0,65.7,61.0,97,89,66,29.80,29.57,3,1,7,0.31
2013-6-12,76.0,67.3,59.6,61.1,56.4,52.6,93,70,50,29.81,29.67,5,2,15,0.01
2013-6-13,63.4,60.4,57.2,61.3,58.3,55.3,95,93,89,29.81,29.44,4,1,8,0.97
2013-6-15,79.9,71.9,60.4,61.2,55.2,48.8,95,58,36,29.97,29.89,3,1,6,0.00
2013-6-16,78.6,68.3,56.0,65.0,59.7,54.2,95,76,51,29.96,29.72,2,0,5,0.00
2013-6-17,85.9,73.9,63.9,67.9,64.6,62.1,96,75,49,29.87,29.79,2,0,4,0.00
2013-6-18,83.8,69.2,63.1,70.3,65.1,61.4,96,88,52,29.86,29.78,2,0,4,0.66
2013-6-19,74.6,65.7,57.2,62.0,54.4,42.8,97,71,36,30.13,29.85,4,1,10,0.03
2013-6-20,79.4,67.3,54.5,62.1,56.9,52.7,95,71,51,30.23,30.13,2,1,4,0.00
2013-6-21,83.4,70.9,57.8,65.8,57.1,51.0,85,63,49,30.27,30.19,3,1,7,0.00
2013-6-22,83.6,70.7,57.6,66.6,59.2,53.0,90,68,48,30.22,30.09,3,1,4,0.00
2013-6-23,88.0,75.8,64.3,72.4,66.8,59.3,91,75,53,30.15,30.01,3,1,6,0.00
2013-6-24,92.1,79.7,71.3,76.4,69.7,63.8,95,74,46,30.04,29.90,3,0,12,0.00
2013-6-25,91.0,78.6,68.6,74.1,68.5,65.2,93,73,50,29.97,29.76,2,0,4,0.00
2013-6-26,83.6,77.3,71.6,71.3,69.1,66.9,89,76,64,29.81,29.74,2,0,5,0.00
2013-6-27,85.7,76.8,70.8,73.4,70.5,69.0,95,82,59,29.79,29.51,3,1,5,0.56
2013-6-28,84.1,76.5,71.8,74.8,70.2,64.9,96,82,61,29.52,29.43,2,1,6,0.00
2013-6-29,84.5,75.1,67.4,71.0,68.2,65.6,95,80,60,29.66,29.45,3,1,8,0.00
2013-6-30,85.5,75.2,68.8,75.0,71.4,67.6,96,88,68,29.87,29.66,3,1,5,0.00
2013-7-1,78.3,74.2,72.7,75.5,72.2,70.6,96,93,84,30.02,29.86,2,0,4,0.93
2013-7-2,81.4,76.0,72.7,76.3,73.0,71.1,96,91,77,30.15,30.01,2,1,5,0.04
2013-7-3,83.8,76.2,71.5,76.4,72.8,69.3,95,89,74,30.21,30.13,3,0,4,0.03
2013-7-4,88.6,80.1,73.9,76.6,73.7,70.9,96,82,64,30.22,30.10,2,0,5,0.00
2013-7-5,90.5,81.2,73.2,76.2,72.4,69.2,95,76,55,30.18,30.04,2,0,6,0.00
2013-7-6,91.2,82.0,74.7,76.4,72.9,71.0,93,75,56,30.10,29.98,2,0,7,0.00
2013-7-7,93.8,83.1,73.2,76.7,73.3,69.1,93,74,49,30.02,29.89,4,1,5,0.01
2013-7-8,88.4,78.2,70.3,72.9,69.0,67.3,92,75,53,30.00,29.92,2,0,4,0.00
2013-7-9,87.6,78.9,69.9,73.5,69.6,66.8,91,74,57,30.04,29.95,2,0,4,0.00
2013-7-10,87.0,80.1,73.5,76.3,71.9,68.5,90,77,64,29.98,29.76,3,1,4,0.00
2013-7-11,81.6,77.2,70.9,75.1,71.1,66.4,95,82,66,29.89,29.76,2,0,5,0.22
2013-7-12,77.4,72.0,67.6,69.1,66.3,63.0,93,82,70,30.07,29.89,4,1,8,0.16
2013-7-13,80.1,72.6,66.6,74.1,69.8,64.8,96,91,80,30.25,30.08,2,1,5,0.04
2013-7-14,89.0,80.1,72.7,75.9,72.9,70.4,96,80,61,30.30,30.19,2,0,4,0.00
2013-7-15,92.3,82.5,74.7,76.7,73.2,69.5,93,75,51,30.21,30.09,3,1,15,0.00
2013-7-16,92.1,79.6,71.6,74.1,69.6,63.4,96,75,41,30.17,30.09,4,1,9,0.00
2013-7-17,93.8,82.1,71.8,74.9,70.9,66.7,93,71,46,30.16,30.03,3,0,5,0.00
2013-7-18,96.1,88.6,80.3,76.6,73.0,68.4,80,61,41,30.01,29.91,3,1,6,0.00
2013-7-19,95.6,85.8,76.8,80.2,74.9,71.5,90,72,51,29.93,29.74,2,1,7,0.00
2013-7-20,89.9,84.2,79.0,75.2,70.2,63.6,78,64,50,29.80,29.67,4,1,5,0.00
2013-7-21,86.3,78.9,73.5,73.5,66.2,59.5,93,67,45,29.92,29.79,2,0,4,0.00
2013-7-22,82.6,76.2,72.3,76.1,72.1,66.8,95,87,71,29.92,29.77,2,0,4,0.46
2013-7-23,85.7,77.2,73.0,76.6,73.0,70.4,96,88,67,29.77,29.51,3,0,6,0.81
2013-7-24,80.9,74.0,67.6,72.4,66.0,53.5,97,78,58,29.90,29.58,4,1,8,0.01
2013-7-25,67.1,64.9,62.7,60.2,55.1,50.3,86,71,60,30.02,29.91,3,2,8,0.01
2013-7-26,80.3,71.0,63.2,64.8,61.3,59.2,88,72,54,30.00,29.95,3,1,6,0.00
2013-7-27,83.6,72.5,63.7,67.8,64.3,60.0,96,77,54,30.02,29.93,3,1,6,0.00
2013-7-28,77.6,71.6,65.5,70.5,66.5,63.2,96,85,70,29.95,29.89,2,0,5,0.24
2013-7-29,83.6,75.6,65.2,70.2,62.4,53.4,97,66,43,30.07,29.96,2,1,5,0.01
2013-7-30,81.1,68.8,58.0,61.3,58.6,54.1,94,72,43,30.13,30.06,3,1,10,0.00
2013-7-31,79.8,69.4,58.9,64.7,61.1,57.5,96,77,54,30.13,30.00,1,0,3,0.00
2013-8-1,74.7,68.8,66.6,68.6,65.8,62.1,96,90,69,30.01,29.80,2,0,4,0.58
2013-8-2,82.6,72.8,64.0,69.0,64.4,60.1,97,77,51,29.87,29.76,2,0,5,0.01
2013-8-3,75.4,69.3,65.2,70.3,64.4,59.5,95,85,70,29.88,29.80,2,0,4,0.07
2013-8-4,79.8,69.2,59.0,63.7,58.3,52.2,96,71,45,29.93,29.81,4,1,9,0.00
2013-8-5,76.5,64.0,54.7,55.6,51.6,45.1,94,68,37,30.02,29.93,3,1,7,0.00
2013-8-6,80.3,73.1,64.7,62.4,58.0,53.8,87,60,43,30.09,30.04,2,1,7,0.00
2013-8-7,78.5,71.4,66.0,67.9,64.4,60.0,91,79,63,30.11,30.03,3,1,7,0.00
2013-8-8,82.2,73.6,69.3,74.8,70.7,67.5,95,91,73,30.04,29.97,3,0,5,0.13
2013-8-9,82.8,76.1,72.0,78.4,73.7,70.3,96,92,78,29.98,29.75,3,0,5,0.26
2013-8-10,82.4,72.8,64.5,72.1,64.4,57.0,97,77,48,30.02,29.83,3,1,6,0.00
2013-8-11,78.5,68.8,57.3,64.1,58.9,51.7,96,73,44,30.09,29.99,2,0,3,0.00
2013-8-12,80.1,72.4,68.4,69.4,65.8,59.0,96,81,51,30.00,29.89,1,0,3,0.04
2013-8-13,75.4,70.5,67.3,70.1,67.4,65.4,97,91,72,29.90,29.66,3,0,7,0.62
2013-8-14,74.4,64.7,54.4,65.8,54.9,48.6,96,73,49,30.01,29.72,5,1,9,0.00
2013-8-15,77.2,63.6,51.6,55.6,52.4,47.0,96,70,37,30.11,30.02,3,1,5,0.00
2013-8-16,78.1,65.8,55.0,59.1,54.9,49.2,96,71,38,30.17,30.10,2,0,4,0.00
2013-8-17,81.8,67.4,55.9,63.2,57.7,54.3,95,74,43,30.24,30.18,2,0,5,0.00
2013-8-18,75.1,67.3,61.5,63.6,60.3,57.2,91,79,59,30.24,30.10,1,0,3,0.00
2013-8-19,78.1,68.9,60.4,66.1,62.2,58.5,96,80,59,30.10,30.00,1,0,2,0.00
2013-8-20,86.5,73.0,60.9,67.5,63.7,59.8,96,75,44,30.10,30.01,3,0,6,0.00
2013-8-21,88.0,75.1,63.5,67.6,64.0,57.8,96,72,39,30.15,30.02,2,0,4,0.00
2013-8-22,75.4,71.3,67.6,71.8,69.1,63.8,96,93,85,30.03,29.84,2,0,3,0.13
2013-8-23,80.3,71.3,61.8,69.1,61.5,51.2,97,74,37,30.07,29.84,4,1,9,0.00
2013-8-24,78.6,67.2,56.6,57.9,54.6,50.9,91,66,39,30.32,30.07,4,1,6,0.00
2013-8-25,82.6,67.8,55.3,61.1,55.7,49.4,96,70,33,30.36,30.20,2,0,3,0.00
2013-8-26,79.9,71.8,65.2,70.3,63.0,56.2,94,74,60,30.20,29.88,2,0,4,0.08
2013-8-27,84.0,75.1,69.4,70.6,68.5,66.8,96,81,58,29.88,29.78,4,1,6,0.01
2013-8-28,86.7,72.8,66.4,72.9,69.1,64.9,96,89,58,29.87,29.81,2,0,4,0.13
2013-8-29,79.0,72.1,68.4,69.7,67.6,64.3,96,86,66,29.99,29.85,2,0,5,0.01
2013-8-30,83.0,74.8,69.1,70.4,67.4,64.9,89,79,61,30.00,29.82,2,0,3,0.00
2013-8-31,83.8,77.3,71.6,74.0,71.3,69.0,93,82,70,29.83,29.75,2,0,6,0.00
2013-9-1,83.2,76.8,73.2,76.3,72.4,70.4,95,87,72,29.83,29.75,2,0,3,0.06
2013-9-2,79.8,75.5,71.5,74.8,72.8,70.0,95,91,83,29.77,29.67,1,0,2,0.02
2013-9-3,80.1,72.4,62.9,71.3,63.9,56.2,96,77,52,29.86,29.67,3,1,6,0.01
2013-9-4,80.1,68.8,59.0,60.4,57.9,52.7,93,71,44,29.97,29.85,3,1,6,0.00
2013-9-5,76.8,66.6,55.3,62.5,54.0,40.1,94,68,33,30.12,29.89,4,1,8,0.00
2013-9-6,69.4,58.3,48.8,48.7,45.7,41.1,88,66,38,30.23,30.11,3,0,5,0.00
2013-9-7,78.3,63.2,47.7,57.5,50.8,45.8,96,68,32,30.11,29.87,2,0,8,0.00
2013-9-8,80.1,69.1,58.6,65.1,55.5,42.8,87,64,32,30.05,29.79,4,1,11,0.00
2013-9-9,72.3,62.0,50.2,59.7,50.1,44.0,85,66,44,30.21,30.05,2,0,4,0.00
2013-9-10,84.3,74.7,65.5,72.7,67.5,59.5,88,79,66,30.13,30.01,2,0,4,0.00
2013-9-11,92.9,81.7,72.3,76.8,73.1,70.1,95,77,57,30.08,29.93,3,0,6,0.00
2013-9-12,86.3,76.6,69.4,73.9,70.5,65.4,95,82,61,29.96,29.63,4,1,6,1.29
2013-9-13,74.2,67.4,58.4,68.4,60.5,48.9,95,80,57,29.82,29.60,4,1,10,0.08
2013-9-14,60.4,54.6,49.8,49.0,46.7,44.5,85,75,63,29.95,29.82,3,1,7,0.00
2013-9-15,66.4,59.6,55.6,51.2,49.9,46.6,82,71,50,30.07,30.05,0,0,1,0.00
2013-9-16,70.9,61.1,55.0,58.7,53.0,47.0,91,76,53,30.21,30.00,3,1,7,0.01
2013-9-17,61.8,54.2,47.6,46.4,41.0,36.3,79,62,43,30.41,30.21,4,1,10,0.00
2013-9-18,68.8,55.6,42.6,50.5,44.3,38.3,93,68,36,30.33,30.15,2,0,4,0.00
2013-9-19,73.7,59.0,45.8,54.0,48.6,41.5,93,71,37,30.17,30.03,2,0,4,0.00
2013-9-20,76.1,62.4,49.6,60.9,54.2,46.2,93,76,51,30.06,29.96,3,0,4,0.00
2013-9-21,76.0,65.8,53.2,67.0,60.7,50.0,94,84,66,29.98,29.63,5,1,11,0.29
2013-9-22,69.3,62.0,52.8,66.4,53.2,43.3,93,75,52,29.89,29.62,5,1,13,0.66
2013-9-23,63.1,53.9,43.6,47.3,42.8,38.8,88,67,49,30.02,29.88,4,1,12,0.00
2013-9-24,68.8,54.1,41.3,49.7,43.3,36.7,90,69,41,30.03,29.84,2,0,7,0.00
2013-9-25,69.3,56.0,43.6,53.7,46.9,39.6,92,74,44,29.93,29.84,2,0,6,0.00
2013-9-26,67.8,58.0,48.8,57.3,51.6,45.4,93,80,60,30.07,29.91,2,0,4,0.00
2013-9-27,67.3,58.1,50.1,54.6,51.0,46.4,91,78,63,30.24,30.07,3,0,7,0.00
2013-9-28,70.6,60.2,49.8,55.5,50.7,46.1,92,72,49,30.30,30.21,3,1,6,0.00
2013-9-29,69.4,59.0,49.1,58.1,51.1,45.4,92,76,60,30.21,30.05,2,0,4,0.00
2013-9-30,70.6,58.3,48.0,55.3,49.7,43.7,93,74,53,30.07,29.94,2,0,5,0.00
2013-10-1,66.3,55.1,49.2,56.7,49.6,45.5,87,82,71,29.97,29.90,0,0,0,0.00
2013-10-2,80.3,66.3,53.6,63.6,57.3,49.8,94,74,52,29.98,29.87,3,0,11,0.00
2013-10-3,74.7,64.8,53.8,62.0,55.8,50.0,93,74,49,30.10,29.98,1,0,3,0.00
2013-10-4,82.6,69.4,58.6,69.1,61.8,54.1,92,78,55,30.03,29.92,2,0,3,0.00
2013-10-5,73.0,67.2,63.7,64.5,61.9,59.7,90,83,73,30.07,29.99,2,0,5,0.00
2013-10-6,67.6,66.2,65.2,65.5,63.5,61.9,94,91,86,30.07,30.00,2,0,5,0.00
2013-10-7,75.1,67.3,57.8,70.4,64.4,54.9,95,90,78,30.00,29.72,4,1,8,0.41
2013-10-8,64.7,55.6,47.4,54.4,47.1,43.3,94,75,47,30.30,29.95,3,1,7,0.00
2013-10-9,60.9,54.5,48.5,49.5,45.5,40.0,86,72,58,30.38,30.27,4,1,8,0.01
2013-10-10,62.0,56.9,52.0,54.6,50.1,45.0,84,78,73,30.27,30.06,3,1,7,0.00
2013-10-11,67.8,62.6,58.3,59.5,56.1,52.2,84,79,72,30.07,29.99,4,1,8,0.00
2013-10-12,70.3,63.7,56.9,57.3,49.5,35.6,79,61,28,30.26,30.05,6,2,11,0.00
2013-10-13,62.4,57.7,54.1,52.1,49.7,47.8,83,75,67,30.37,30.26,4,2,8,0.00
2013-10-14,63.9,55.6,48.3,51.3,47.5,43.9,90,75,55,30.35,30.21,2,0,4,0.00
2013-10-15,69.4,56.8,46.7,55.5,48.8,42.8,93,76,57,30.24,30.10,2,0,6,0.00
2013-10-16,65.2,58.1,50.2,57.7,52.4,45.8,90,82,73,30.10,29.89,1,0,5,0.00
2013-10-17,73.2,65.1,60.5,62.3,59.3,56.3,91,82,65,29.89,29.66,2,0,8,0.02
2013-10-18,66.4,60.1,49.5,61.7,48.6,41.2,90,67,45,29.95,29.64,4,1,10,0.00
2013-10-19,62.9,53.3,41.8,52.3,44.8,37.6,91,74,50,29.96,29.71,2,0,4,0.00
2013-10-20,61.0,53.2,43.1,52.1,40.9,34.9,87,65,38,30.03,29.71,4,1,8,0.00
2013-10-21,65.3,51.5,37.9,45.4,39.2,33.8,92,66,34,30.12,29.96,2,1,5,0.00
2013-10-22,64.5,52.8,43.5,53.8,45.0,38.7,93,75,59,29.96,29.71,2,0,5,0.01
2013-10-23,53.2,46.0,38.9,42.7,37.1,34.0,90,72,52,29.78,29.59,2,0,5,0.00
2013-10-24,53.9,43.5,34.3,36.4,30.7,27.5,89,62,38,29.97,29.72,4,1,6,0.00
2013-10-25,51.9,41.5,32.2,35.2,29.4,26.1,87,63,42,30.20,29.97,4,1,10,0.00
2013-10-26,54.1,42.8,30.9,36.2,30.1,25.8,90,63,39,30.19,29.86,4,1,8,0.00
2013-10-27,57.5,47.8,37.8,36.4,32.5,29.5,83,57,40,30.09,29.82,5,1,9,0.00
2013-10-28,60.1,44.8,31.6,37.7,32.2,26.7,89,64,38,30.29,30.09,3,0,7,0.00
2013-10-29,53.6,44.6,37.6,34.9,32.4,28.6,79,63,43,30.40,30.29,3,0,6,0.00
2013-10-30,57.2,46.9,37.5,49.3,40.1,31.4,86,77,67,30.32,30.15,1,0,2,0.00
2013-10-31,62.6,54.0,41.6,59.7,50.4,37.1,92,88,81,30.20,29.77,3,0,5,0.01
2013-11-1,67.4,63.0,53.6,63.1,56.9,47.9,92,81,61,29.77,29.51,4,2,9,0.15
2013-11-2,66.0,54.8,46.5,52.4,45.0,37.4,93,72,46,29.75,29.58,3,0,6,0.00
2013-11-3,49.6,43.4,34.1,40.3,32.4,18.9,86,66,51,30.42,29.74,5,2,8,0.00
2013-11-4,44.3,36.6,28.7,25.4,19.3,14.0,72,51,30,30.63,30.42,4,1,10,0.00
2013-11-5,54.2,43.7,31.8,40.1,34.0,24.7,86,69,56,30.63,30.45,2,0,5,0.00
2013-11-6,60.4,50.6,37.8,49.7,42.5,33.2,90,74,59,30.46,30.04,3,1,7,0.00
2013-11-7,61.3,52.1,36.9,57.8,47.1,29.1,91,83,66,30.04,29.71,5,1,8,0.12
2013-11-8,49.1,40.6,33.8,34.4,28.3,24.6,87,63,42,30.18,29.89,5,2,11,0.00
2013-11-9,49.2,41.2,30.0,33.9,27.4,23.1,83,59,39,30.26,29.97,3,1,5,0.00
2013-11-10,60.4,47.7,38.3,39.7,33.4,29.5,79,59,34,30.01,29.76,7,2,13,0.00
2013-11-11,52.9,47.4,38.3,33.4,29.1,25.0,62,49,40,30.17,29.93,5,2,7,0.00
2013-11-12,49.4,37.9,27.8,35.1,24.1,14.9,77,58,45,30.25,29.90,7,2,11,0.03
2013-11-13,36.8,28.6,25.7,17.6,15.4,12.6,67,58,38,30.34,30.24,6,1,14,0.00
2013-11-14,52.9,37.8,26.3,22.4,18.2,14.7,74,48,23,30.24,30.11,4,1,6,0.00
2013-11-15,56.2,40.2,29.5,30.3,24.7,17.1,77,56,28,30.21,30.12,3,0,7,0.00
2013-11-16,59.8,46.5,34.0,45.4,38.6,25.9,92,75,52,30.29,30.19,3,0,4,0.02
2013-11-17,59.2,53.3,41.6,57.2,50.8,37.4,94,91,86,30.24,29.76,2,0,5,0.01
2013-11-18,65.0,58.1,49.6,60.3,42.2,27.3,95,60,30,29.76,29.55,5,2,12,0.08
2013-11-19,49.5,42.9,33.8,29.8,25.1,20.6,59,49,43,30.32,29.74,8,4,20,0.00
2013-11-20,43.2,33.2,26.7,21.1,17.4,10.3,71,54,27,30.57,30.32,5,1,8,0.00
2013-11-21,50.4,38.5,23.6,40.3,29.3,17.7,85,70,53,30.59,30.36,3,0,6,0.00
2013-11-22,56.7,50.7,45.7,50.9,44.9,38.2,93,81,75,30.36,29.86,3,1,5,0.09
2013-11-23,51.4,41.1,29.1,46.7,25.0,6.0,85,54,34,30.01,29.85,8,4,14,0.00
2013-11-24,30.0,25.6,21.9,9.1,4.0,-3.9,48,40,23,30.31,29.97,10,5,14,0.00
2013-11-27,45.8,39.0,33.4,43.9,35.0,20.6,93,86,59,29.68,29.31,6,4,11,2.05
2013-11-28,34.7,30.4,25.6,20.0,14.1,8.2,68,51,35,30.44,29.68,7,3,17,0.18
2013-11-29,39.8,30.8,25.4,23.3,18.5,15.5,79,60,44,30.70,30.43,5,1,6,0.00
2013-11-30,35.2,29.0,20.8,25.8,17.6,12.7,72,63,42,30.73,30.35,3,0,7,0.00
2013-12-1,47.7,39.0,31.3,33.5,28.7,24.3,80,67,50,30.35,29.97,1,0,3,0.00
2013-12-2,46.1,39.2,33.7,38.2,33.0,28.6,86,78,71,29.97,29.85,1,0,3,0.00
2013-12-3,52.5,37.9,29.3,37.2,31.2,25.9,93,78,53,29.97,29.83,2,0,3,0.00
2013-12-4,51.0,41.1,30.7,40.6,33.9,26.1,91,76,59,30.10,29.97,2,0,2,0.00
2013-12-5,55.4,51.0,46.2,53.7,48.2,40.6,94,90,82,30.09,29.89,2,0,3,0.03
2013-12-6,56.2,47.2,35.8,54.5,45.4,34.0,94,93,93,30.13,29.82,4,1,9,0.97
2013-12-7,41.3,35.2,29.7,34.0,27.5,17.9,93,75,52,30.48,30.06,5,1,10,0.09
2013-12-8,32.1,29.1,25.7,25.8,18.9,15.5,84,66,56,30.57,30.36,3,0,6,0.00
2013-12-9,37.0,32.7,30.0,35.7,30.5,25.8,95,91,84,30.36,29.93,4,1,12,0.26
2013-12-10,34.1,31.1,24.5,32.8,29.6,22.8,95,94,93,30.08,29.84,2,0,4,0.04
2013-12-11,33.8,27.1,21.8,22.5,19.1,16.0,93,73,51,30.28,30.08,4,1,6,0.03
2013-12-12,26.9,23.4,20.6,16.3,9.1,5.0,71,55,40,30.32,30.12,6,2,11,0.00
2013-12-13,34.7,26.0,17.8,18.3,11.7,5.3,71,55,43,30.29,30.08,5,1,9,0.01
2013-12-14,30.7,23.7,18.9,28.4,17.7,14.9,91,78,64,30.47,29.81,7,2,18,0.00
2013-12-15,38.2,33.4,29.3,34.1,28.8,21.6,93,84,67,29.82,29.50,7,2,14,0.64
2013-12-16,31.2,26.1,16.7,22.2,11.7,6.9,72,55,41,30.23,29.81,4,2,10,0.00
2013-12-17,28.7,23.0,16.2,25.0,18.0,7.1,86,81,66,30.23,29.93,3,0,7,0.00
2013-12-18,37.8,26.4,16.7,23.5,18.3,12.7,89,72,51,30.15,29.92,4,1,11,0.10
2013-12-19,44.1,31.4,20.3,28.2,22.3,13.9,85,70,48,30.17,30.01,4,1,7,0.16
2013-12-20,48.5,38.4,30.7,33.5,30.1,26.3,88,73,54,30.09,29.95,3,1,6,0.22
2013-12-21,59.2,47.4,38.2,53.1,42.7,33.2,95,84,66,29.99,29.88,4,1,9,0.06
2013-12-22,69.1,62.2,52.9,62.3,56.6,50.3,94,82,71,29.95,29.78,6,2,9,0.00
2013-12-23,59.2,53.5,40.5,57.0,50.3,35.4,93,89,81,30.13,29.88,7,1,12,0.64
2013-12-24,40.9,34.6,25.4,34.8,22.7,9.8,81,62,46,30.33,30.08,8,2,12,0.00
2013-12-25,27.9,23.7,17.5,16.6,8.5,5.0,62,52,43,30.52,30.33,7,2,12,0.00
2013-12-26,34.9,29.5,25.8,25.8,20.8,16.8,77,70,61,30.42,30.15,3,0,4,0.00
2013-12-27,39.5,30.3,22.4,24.2,19.6,18.0,86,66,44,30.35,30.25,4,1,6,0.00
2013-12-28,52.6,36.5,24.7,28.0,23.5,18.3,84,62,35,30.28,30.05,4,1,8,0.00
2013-12-29,46.0,38.6,33.1,39.4,33.6,24.5,92,82,57,30.06,29.42,4,1,11,1.05
2013-12-30,39.5,32.6,21.8,37.6,24.9,8.9,94,75,52,30.19,29.67,6,2,10,0.00
2013-12-31,31.3,24.9,19.7,21.2,12.1,8.0,68,58,49,30.26,30.05,4,1,8,0.00
2014-1-1,32.4,26.9,19.1,19.0,13.5,7.4,70,57,48,30.40,30.25,3,1,6,0.00
2014-1-2,30.3,24.7,14.0,21.2,18.0,9.2,82,76,57,30.25,29.68,5,2,8,0.00